TimePDT,TemperatureF,Dew PointF,Humidity,Sea Level PressureIn,VisibilityMPH,Wind Direction,Wind SpeedMPH,Gust SpeedMPH,PrecipitationIn,Events,Conditions,WindDirDegrees,DateUTC
12:00 AM,68.0,57.2,68,29.89,9.0,Calm,Calm,-,N/A,,Clear,0,2013-09-13 07:00:00
1:00 AM,66.2,57.2,73,29.90,9.0,Calm,Calm,-,N/A,,Clear,0,2013-09-13 08:00:00
2:00 AM,62.6,57.2,82,29.91,9.0,Variable,2.3,-,N/A,,Clear,0,2013-09-13 09:00:00
3:00 AM,64.4,57.2,77,29.92,9.0,Variable,2.3,-,N/A,,Clear,0,2013-09-13 10:00:00
4:00 AM,64.4,57.2,77,29.93,9.0,Variable,2.3,-,N/A,,Clear,0,2013-09-13 11:00:00
5:00 AM,60.8,55.4,82,29.94,9.0,Calm,Calm,-,N/A,,Clear,0,2013-09-13 12:00:00
6:00 AM,59.0,57.2,94,29.95,9.0,Variable,2.3,-,N/A,,Clear,0,2013-09-13 13:00:00
7:00 AM,59.0,55.4,88,29.97,9.0,Calm,Calm,-,N/A,,Clear,0,2013-09-13 14:00:00
8:00 AM,57.2,55.4,94,29.98,9.0,Calm,Calm,-,N/A,,Clear,0,2013-09-13 15:00:00
9:00 AM,60.8,57.2,88,29.97,9.0,South,3.5,-,N/A,,Clear,170,2013-09-13 16:00:00
10:00 AM,68.0,57.2,68,29.96,9.0,South,5.8,-,N/A,,Clear,170,2013-09-13 17:00:00
11:00 AM,73.4,53.6,50,29.93,9.0,Variable,2.3,-,N/A,,Clear,0,2013-09-13 18:00:00
12:00 PM,77.0,53.6,44,29.89,9.0,Variable,2.3,-,N/A,,Clear,0,2013-09-13 19:00:00
1:00 PM,82.4,51.8,35,29.86,9.0,NNE,3.5,-,N/A,,Clear,30,2013-09-13 20:00:00
2:00 PM,86.0,50.0,29,29.83,9.0,Variable,2.3,-,N/A,,Clear,0,2013-09-13 21:00:00
3:00 PM,91.4,48.2,23,29.79,9.0,North,4.6,-,N/A,,Clear,350,2013-09-13 22:00:00
4:00 PM,93.2,50.0,23,29.76,9.0,North,3.5,-,N/A,,Clear,360,2013-09-13 23:00:00
5:00 PM,91.4,50.0,24,29.74,9.0,North,3.5,-,N/A,,Clear,360,2013-09-14 00:00:00
6:00 PM,86.0,53.6,33,29.73,9.0,Variable,2.3,-,N/A,,Clear,0,2013-09-14 01:00:00
7:00 PM,78.8,53.6,42,29.74,9.0,South,8.1,-,N/A,,Clear,170,2013-09-14 02:00:00
8:00 PM,75.2,55.4,50,29.77,9.0,South,4.6,-,N/A,,Clear,170,2013-09-14 03:00:00
9:00 PM,75.2,57.2,53,29.80,9.0,SSW,5.8,-,N/A,,Clear,200,2013-09-14 04:00:00
10:00 PM,73.4,59.0,61,29.82,9.0,SSW,3.5,-,N/A,,Clear,200,2013-09-14 05:00:00
11:00 PM,71.6,59.0,64,29.85,9.0,South,5.8,-,N/A,,Clear,190,2013-09-14 06:00:00